Location: Unspecified
(29.9680°N, 0.0000°E)
Time: 01:07:36
(UTC+00:00)

A-11 Canister half - Pass Details

Date: 20 June 2019
Orbit: 1526 x 1683 km, 47.3° (Epoch: 18 August)

Event Time Altitude Azimuth Distance (km) Brightness Sun altitude
Rises 13:54:31 0° 293° (WNW) 4,698 11.9 64.0°
Reaches altitude 10° 13:58:34 10° 278° (W) 3,731 11.6 63.1°
Maximum altitude 14:04:54 20° 235° (SW) 3,026 11.3 61.8°
Drops below altitude 10° 14:11:21 10° 192° (SSW) 3,800 11.3 60.4°
Sets 14:15:36 0° 176° (S) 4,812 11.6 59.5°
